Time,TemperatureF,DewpointF,PressureIn,WindDirection,WindDirectionDegrees,WindSpeedMPH,WindSpeedGustMPH,Humidity,HourlyPrecipIn,Conditions,Clouds,dailyrainin,SoftwareType,DateUTC
2013-10-15 00:07:00,50.1,42.0,29.96,SE,124,2.0,-999.0,75,-99.99,,,0.00,weatherlink.com 1.10,2013-10-15 05:07:00,
2013-10-15 00:21:00,49.8,43.0,29.95,ESE,117,2.0,-999.0,77,-99.99,,,0.00,weatherlink.com 1.10,2013-10-15 05:21:00,
2013-10-15 00:36:00,49.4,44.0,29.95,SSE,167,2.0,-999.0,81,-99.99,,,0.01,weatherlink.com 1.10,2013-10-15 05:36:00,
2013-10-15 00:51:00,48.8,44.0,29.95,East,93,2.0,-999.0,84,-99.99,,,0.02,weatherlink.com 1.10,2013-10-15 05:51:00,
2013-10-15 01:06:00,48.3,44.0,29.94,SE,138,2.0,-999.0,86,-99.99,,,0.03,weatherlink.com 1.10,2013-10-15 06:06:00,
2013-10-15 01:22:00,47.9,45.0,29.93,SE,128,3.0,-999.0,88,-99.99,,,0.04,weatherlink.com 1.10,2013-10-15 06:22:00,
2013-10-15 01:37:00,47.6,45.0,29.92,ESE,122,1.0,-999.0,90,-99.99,,,0.08,weatherlink.com 1.10,2013-10-15 06:37:00,
2013-10-15 01:52:00,47.1,45.0,29.90,East,98,1.0,-999.0,92,-99.99,,,0.13,weatherlink.com 1.10,2013-10-15 06:52:00,
2013-10-15 02:07:00,46.8,45.0,29.90,ESE,119,0.0,-999.0,92,-99.99,,,0.16,weatherlink.com 1.10,2013-10-15 07:07:00,
2013-10-15 02:22:00,46.7,45.0,29.90,ESE,109,1.0,-999.0,93,-99.99,,,0.21,weatherlink.com 1.10,2013-10-15 07:22:00,
2013-10-15 02:37:00,46.5,45.0,29.89,SW,219,0.0,-999.0,94,-99.99,,,0.26,weatherlink.com 1.10,2013-10-15 07:37:00,
2013-10-15 02:52:00,46.4,45.0,29.90,WSW,249,0.0,-999.0,94,-99.99,,,0.31,weatherlink.com 1.10,2013-10-15 07:52:00,
2013-10-15 03:07:00,46.5,45.0,29.87,SW,230,1.0,-999.0,95,-99.99,,,0.36,weatherlink.com 1.10,2013-10-15 08:07:00,
2013-10-15 03:22:00,46.5,45.0,29.86,ESE,115,1.0,-999.0,95,-99.99,,,0.39,weatherlink.com 1.10,2013-10-15 08:22:00,
2013-10-15 03:37:00,46.5,46.0,29.85,ESE,117,1.0,-999.0,96,-99.99,,,0.39,weatherlink.com 1.10,2013-10-15 08:37:00,
2013-10-15 03:53:00,46.7,46.0,29.84,SE,141,0.0,-999.0,96,-99.99,,,0.39,weatherlink.com 1.10,2013-10-15 08:53:00,
2013-10-15 04:07:00,46.7,46.0,29.82,East,83,0.0,-999.0,96,-99.99,,,0.41,weatherlink.com 1.10,2013-10-15 09:07:00,
2013-10-15 04:22:00,46.8,46.0,29.81,ESE,117,1.0,-999.0,96,-99.99,,,0.42,weatherlink.com 1.10,2013-10-15 09:22:00,
2013-10-15 04:37:00,47.0,46.0,29.80,ESE,117,3.0,-999.0,96,-99.99,,,0.43,weatherlink.com 1.10,2013-10-15 09:37:00,
2013-10-15 04:52:00,47.1,46.0,29.79,ESE,117,0.0,-999.0,96,-99.99,,,0.46,weatherlink.com 1.10,2013-10-15 09:52:00,
2013-10-15 05:07:00,47.3,47.0,29.78,SW,214,0.0,-999.0,97,-99.99,,,0.51,weatherlink.com 1.10,2013-10-15 10:07:00,
2013-10-15 05:22:00,47.4,47.0,29.77,WNW,296,0.0,-999.0,97,-99.99,,,0.53,weatherlink.com 1.10,2013-10-15 10:22:00,
2013-10-15 05:37:00,47.6,47.0,29.75,SSE,149,1.0,-999.0,97,-99.99,,,0.55,weatherlink.com 1.10,2013-10-15 10:37:00,
2013-10-15 05:52:00,47.7,47.0,29.74,SSW,205,0.0,-999.0,97,-99.99,,,0.55,weatherlink.com 1.10,2013-10-15 10:52:00,
2013-10-15 06:07:00,48.0,47.0,29.73,South,178,0.0,-999.0,97,-99.99,,,0.57,weatherlink.com 1.10,2013-10-15 11:07:00,
2013-10-15 06:22:00,48.2,47.0,29.73,SW,234,0.0,-999.0,97,-99.99,,,0.59,weatherlink.com 1.10,2013-10-15 11:22:00,
2013-10-15 06:37:00,48.2,47.0,29.73,SE,146,1.0,-999.0,97,-99.99,,,0.59,weatherlink.com 1.10,2013-10-15 11:37:00,
2013-10-15 06:52:00,48.3,48.0,29.71,SW,235,1.0,-999.0,97,-99.99,,,0.59,weatherlink.com 1.10,2013-10-15 11:52:00,
2013-10-15 07:07:00,48.5,48.0,29.71,WSW,244,2.0,-999.0,98,-99.99,,,0.59,weatherlink.com 1.10,2013-10-15 12:07:00,
2013-10-15 07:22:00,48.5,48.0,29.71,South,188,0.0,-999.0,98,-99.99,,,0.59,weatherlink.com 1.10,2013-10-15 12:22:00,
2013-10-15 07:38:00,48.6,48.0,29.71,SE,135,0.0,-999.0,98,-99.99,,,0.59,weatherlink.com 1.10,2013-10-15 12:38:00,
2013-10-15 07:53:00,48.9,48.0,29.70,South,191,2.0,-999.0,98,-99.99,,,0.59,weatherlink.com 1.10,2013-10-15 12:53:00,
2013-10-15 08:08:00,49.1,49.0,29.70,SSW,205,0.0,-999.0,98,-99.99,,,0.59,weatherlink.com 1.10,2013-10-15 13:08:00,
2013-10-15 08:23:00,49.4,49.0,29.70,SSW,196,0.0,-999.0,98,-99.99,,,0.59,weatherlink.com 1.10,2013-10-15 13:23:00,
2013-10-15 08:38:00,49.5,49.0,29.69,West,261,2.0,-999.0,98,-99.99,,,0.59,weatherlink.com 1.10,2013-10-15 13:38:00,
2013-10-15 08:53:00,49.8,49.0,29.69,SSW,211,0.0,-999.0,98,-99.99,,,0.59,weatherlink.com 1.10,2013-10-15 13:53:00,
2013-10-15 09:08:00,50.1,50.0,29.68,SSE,156,1.0,-999.0,99,-99.99,,,0.59,weatherlink.com 1.10,2013-10-15 14:08:00,
2013-10-15 09:24:00,50.4,50.0,29.68,SW,223,0.0,-999.0,99,-99.99,,,0.59,weatherlink.com 1.10,2013-10-15 14:24:00,
2013-10-15 09:39:00,50.7,51.0,29.67,WSW,247,1.0,-999.0,99,-99.99,,,0.59,weatherlink.com 1.10,2013-10-15 14:39:00,
2013-10-15 09:54:00,50.8,51.0,29.67,SW,216,0.0,-999.0,99,-99.99,,,0.59,weatherlink.com 1.10,2013-10-15 14:54:00,
2013-10-15 10:08:00,51.1,51.0,29.67,SW,216,0.0,-999.0,99,-99.99,,,0.59,weatherlink.com 1.10,2013-10-15 15:08:00,
2013-10-15 10:38:00,51.7,52.0,29.66,SSW,201,0.0,-999.0,99,-99.99,,,0.59,weatherlink.com 1.10,2013-10-15 15:38:00,
2013-10-15 10:53:00,52.0,52.0,29.66,SW,216,0.0,-999.0,99,-99.99,,,0.59,weatherlink.com 1.10,2013-10-15 15:53:00,
2013-10-15 11:09:00,52.3,52.0,29.65,ESE,119,0.0,-999.0,99,-99.99,,,0.59,weatherlink.com 1.10,2013-10-15 16:09:00,
2013-10-15 11:24:00,52.5,52.0,29.65,SSW,209,1.0,-999.0,99,-99.99,,,0.59,weatherlink.com 1.10,2013-10-15 16:24:00,
2013-10-15 11:39:00,52.6,52.0,29.65,SW,218,0.0,-999.0,99,-99.99,,,0.59,weatherlink.com 1.10,2013-10-15 16:39:00,
2013-10-15 11:54:00,52.9,53.0,29.64,SW,221,0.0,-999.0,99,-99.99,,,0.59,weatherlink.com 1.10,2013-10-15 16:54:00,
2013-10-15 12:08:00,53.1,53.0,29.64,SW,221,0.0,-999.0,99,-99.99,,,0.60,weatherlink.com 1.10,2013-10-15 17:08:00,
2013-10-15 12:23:00,53.5,53.0,29.63,SW,221,0.0,-999.0,99,-99.99,,,0.60,weatherlink.com 1.10,2013-10-15 17:23:00,
2013-10-15 12:38:00,53.6,53.0,29.63,SW,217,0.0,-999.0,99,-99.99,,,0.61,weatherlink.com 1.10,2013-10-15 17:38:00,
2013-10-15 12:53:00,53.3,53.0,29.64,South,172,1.0,-999.0,99,-99.99,,,0.61,weatherlink.com 1.10,2013-10-15 17:53:00,
2013-10-15 13:09:00,52.8,53.0,29.63,South,185,0.0,-999.0,99,-99.99,,,0.61,weatherlink.com 1.10,2013-10-15 18:09:00,
2013-10-15 13:24:00,52.9,53.0,29.62,South,171,0.0,-999.0,99,-99.99,,,0.61,weatherlink.com 1.10,2013-10-15 18:24:00,
2013-10-15 13:39:00,53.3,53.0,29.62,South,171,0.0,-999.0,99,-99.99,,,0.61,weatherlink.com 1.10,2013-10-15 18:39:00,
2013-10-15 13:54:00,53.5,53.0,29.61,SSE,167,1.0,-999.0,99,-99.99,,,0.61,weatherlink.com 1.10,2013-10-15 18:54:00,
2013-10-15 14:09:00,53.5,53.0,29.61,SW,219,0.0,-999.0,98,-99.99,,,0.61,weatherlink.com 1.10,2013-10-15 19:09:00,
2013-10-15 14:24:00,53.2,52.0,29.61,SW,216,4.0,-999.0,97,-99.99,,,0.61,weatherlink.com 1.10,2013-10-15 19:24:00,
2013-10-15 14:54:00,52.6,51.0,29.62,SW,223,1.0,-999.0,95,-99.99,,,0.61,weatherlink.com 1.10,2013-10-15 19:54:00,
2013-10-15 15:09:00,52.3,51.0,29.62,WSW,240,0.0,-999.0,94,-99.99,,,0.61,weatherlink.com 1.10,2013-10-15 20:09:00,
2013-10-15 15:24:00,52.2,51.0,29.62,SW,217,0.0,-999.0,94,-99.99,,,0.61,weatherlink.com 1.10,2013-10-15 20:24:00,
2013-10-15 15:39:00,51.4,50.0,29.62,SW,231,0.0,-999.0,93,-99.99,,,0.62,weatherlink.com 1.10,2013-10-15 20:39:00,
2013-10-15 15:54:00,51.0,49.0,29.62,SSE,163,0.0,-999.0,93,-99.99,,,0.63,weatherlink.com 1.10,2013-10-15 20:54:00,
2013-10-15 16:10:00,50.7,49.0,29.63,WSW,241,0.0,-999.0,93,-99.99,,,0.63,weatherlink.com 1.10,2013-10-15 21:10:00,
2013-10-15 16:25:00,50.5,49.0,29.63,SW,234,0.0,-999.0,93,-99.99,,,0.63,weatherlink.com 1.10,2013-10-15 21:25:00,
2013-10-15 16:40:00,50.4,49.0,29.63,SW,234,0.0,-999.0,94,-99.99,,,0.63,weatherlink.com 1.10,2013-10-15 21:40:00,
2013-10-15 16:55:00,50.5,49.0,29.63,SW,234,0.0,-999.0,94,-99.99,,,0.63,weatherlink.com 1.10,2013-10-15 21:55:00,
2013-10-15 17:09:00,50.4,49.0,29.63,WSW,255,1.0,-999.0,94,-99.99,,,0.63,weatherlink.com 1.10,2013-10-15 22:09:00,
2013-10-15 17:24:00,49.9,48.0,29.64,West,267,1.0,-999.0,93,-99.99,,,0.63,weatherlink.com 1.10,2013-10-15 22:24:00,
2013-10-15 17:39:00,49.5,48.0,29.64,SSW,213,0.0,-999.0,93,-99.99,,,0.63,weatherlink.com 1.10,2013-10-15 22:39:00,
2013-10-15 17:54:00,49.2,47.0,29.64,SW,223,2.0,-999.0,93,-99.99,,,0.63,weatherlink.com 1.10,2013-10-15 22:54:00,
2013-10-15 18:10:00,48.8,47.0,29.65,SSW,210,0.0,-999.0,93,-99.99,,,0.63,weatherlink.com 1.10,2013-10-15 23:10:00,
2013-10-15 18:25:00,48.3,46.0,29.65,SSE,165,0.0,-999.0,93,-99.99,,,0.63,weatherlink.com 1.10,2013-10-15 23:25:00,
2013-10-15 18:40:00,48.2,46.0,29.65,SW,218,1.0,-999.0,93,-99.99,,,0.63,weatherlink.com 1.10,2013-10-15 23:40:00,
2013-10-15 18:55:00,47.9,46.0,29.65,SSW,208,0.0,-999.0,93,-99.99,,,0.63,weatherlink.com 1.10,2013-10-15 23:55:00,
2013-10-15 19:09:00,47.7,46.0,29.66,SSW,208,0.0,-999.0,93,-99.99,,,0.63,weatherlink.com 1.10,2013-10-16 00:09:00,
2013-10-15 19:24:00,47.6,46.0,29.66,SSW,211,1.0,-999.0,93,-99.99,,,0.63,weatherlink.com 1.10,2013-10-16 00:24:00,
2013-10-15 19:39:00,47.4,46.0,29.66,WSW,247,0.0,-999.0,93,-99.99,,,0.63,weatherlink.com 1.10,2013-10-16 00:39:00,
2013-10-15 19:54:00,47.3,45.0,29.65,South,169,0.0,-999.0,93,-99.99,,,0.63,weatherlink.com 1.10,2013-10-16 00:54:00,
2013-10-15 20:10:00,47.1,45.0,29.66,South,169,0.0,-999.0,93,-99.99,,,0.63,weatherlink.com 1.10,2013-10-16 01:10:00,
2013-10-15 20:25:00,47.0,45.0,29.66,South,169,0.0,-999.0,94,-99.99,,,0.63,weatherlink.com 1.10,2013-10-16 01:25:00,
2013-10-15 20:40:00,47.0,45.0,29.67,South,169,1.0,-999.0,94,-99.99,,,0.63,weatherlink.com 1.10,2013-10-16 01:40:00,
2013-10-15 20:55:00,47.0,45.0,29.67,South,169,0.0,-999.0,94,-99.99,,,0.63,weatherlink.com 1.10,2013-10-16 01:55:00,
2013-10-15 21:10:00,47.0,45.0,29.67,South,169,0.0,-999.0,94,-99.99,,,0.63,weatherlink.com 1.10,2013-10-16 02:10:00,
2013-10-15 21:25:00,47.0,45.0,29.67,South,169,0.0,-999.0,94,-99.99,,,0.63,weatherlink.com 1.10,2013-10-16 02:25:00,
2013-10-15 21:40:00,47.0,45.0,29.67,South,169,0.0,-999.0,94,-99.99,,,0.63,weatherlink.com 1.10,2013-10-16 02:40:00,
2013-10-15 21:55:00,47.0,45.0,29.67,South,169,0.0,-999.0,94,-99.99,,,0.64,weatherlink.com 1.10,2013-10-16 02:55:00,
2013-10-15 22:10:00,46.8,45.0,29.67,South,169,0.0,-999.0,94,-99.99,,,0.65,weatherlink.com 1.10,2013-10-16 03:10:00,
2013-10-15 22:25:00,46.8,46.0,29.67,South,169,0.0,-999.0,95,-99.99,,,0.65,weatherlink.com 1.10,2013-10-16 03:25:00,
2013-10-15 22:40:00,46.8,46.0,29.67,South,169,0.0,-999.0,95,-99.99,,,0.66,weatherlink.com 1.10,2013-10-16 03:40:00,
2013-10-15 22:55:00,46.8,46.0,29.67,South,169,0.0,-999.0,95,-99.99,,,0.66,weatherlink.com 1.10,2013-10-16 03:55:00,
2013-10-15 23:10:00,46.8,46.0,29.67,South,169,0.0,-999.0,95,-99.99,,,0.66,weatherlink.com 1.10,2013-10-16 04:10:00,
2013-10-15 23:25:00,46.8,46.0,29.67,South,169,0.0,-999.0,95,-99.99,,,0.66,weatherlink.com 1.10,2013-10-16 04:25:00,
2013-10-15 23:40:00,46.8,46.0,29.67,South,169,0.0,-999.0,95,-99.99,,,0.66,weatherlink.com 1.10,2013-10-16 04:40:00,
2013-10-15 23:55:00,46.8,46.0,29.67,South,169,0.0,-999.0,96,-99.99,,,0.66,weatherlink.com 1.10,2013-10-16 04:55:00,